When you browse on this site, cookies collect data to enhance your experience and personalize the content and advertising you see.
Visit our Privacy Policy to learn more. By continuing to use the site, you agree to this use of cookies and data.
  • In United Kingdom
  • List of Countries
  • For 7 days
  • Water Temperature
  • Satellite Maps
  • Weather Map
  • Weather Widgets
  • user-avatar
    Login

    Hourly Weather Abertridwr

    Today, 15 December, Saturday

    Time Temperature Precipitation Wind Pressure Humidity
    00:00 0°C° 0 mm 9 mps 751 mmHg 75%
    01:00 0°C° 0.2 mm 9 mps 750 mmHg 77%
    02:00 0°C° 0.2 mm 9 mps 749 mmHg 79%
    03:00 0°C° 0.2 mm 9 mps 748 mmHg 80%
    04:00 0°C° 0.7 mm 10 mps 748 mmHg 82%
    05:00 0°C° 0.7 mm 10 mps 747 mmHg 84%
    06:00 -1°C° 0 mm 11 mps 746 mmHg 84%
    07:00 -1°C° 1 mm 11 mps 746 mmHg 86%
    08:00 +1°C° 1 mm 11 mps 745 mmHg 88%
    09:00 +1°C° 1 mm 11 mps 744 mmHg 90%
    10:00 +2°C° 1.5 mm 11 mps 743 mmHg 90%
    11:00 +3°C° 1.5 mm 11 mps 742 mmHg 91%
    12:00 +2°C° 0 mm 11 mps 741 mmHg 90%
    13:00 +3°C° 2.4 mm 11 mps 740 mmHg 91%
    14:00 +4°C° 2.4 mm 11 mps 738 mmHg 92%
    15:00 +6°C° 2.4 mm 11 mps 736 mmHg 93%
    16:00 +6°C° 0.5 mm 11 mps 736 mmHg 90%
    17:00 +7°C° 0.5 mm 11 mps 736 mmHg 87%
    18:00 +7°C° 0.5 mm 10 mps 735 mmHg 84%
    19:00 +7°C° 0.1 mm 10 mps 736 mmHg 82%
    20:00 +6°C° 0.1 mm 10 mps 737 mmHg 80%
    21:00 +5°C° 0.1 mm 10 mps 738 mmHg 79%
    22:00 +5°C° 0 mm 9 mps 738 mmHg 80%
    23:00 +4°C° 0 mm 8 mps 739 mmHg 81%

    Tomorrow, 16 December, Sunday

    Time Temperature Precipitation Wind Pressure Humidity
    00:00 +4°C° 0 mm 7 mps 740 mmHg 83%
    01:00 +4°C° 0.1 mm 6 mps 741 mmHg 84%
    02:00 +3°C° 0.1 mm 6 mps 741 mmHg 86%
    03:00 +3°C° 0.1 mm 5 mps 741 mmHg 87%
    04:00 +3°C° 0.1 mm 5 mps 741 mmHg 87%
    05:00 +3°C° 0.1 mm 5 mps 742 mmHg 88%
    06:00 +4°C° 0.1 mm 4 mps 742 mmHg 88%
    07:00 +4°C° 0.1 mm 4 mps 742 mmHg 88%
    08:00 +4°C° 0.1 mm 4 mps 742 mmHg 89%
    09:00 +4°C° 0.1 mm 4 mps 742 mmHg 89%
    10:00 +5°C° 0.2 mm 4 mps 742 mmHg 87%
    11:00 +6°C° 0.2 mm 4 mps 742 mmHg 85%
    12:00 +7°C° 0.2 mm 4 mps 742 mmHg 83%
    13:00 +7°C° 0.5 mm 4 mps 742 mmHg 84%
    14:00 +6°C° 0.5 mm 4 mps 742 mmHg 85%
    15:00 +6°C° 0.5 mm 4 mps 742 mmHg 87%
    16:00 +6°C° 0.3 mm 4 mps 742 mmHg 88%
    17:00 +5°C° 0.3 mm 3 mps 743 mmHg 89%
    18:00 +5°C° 0.3 mm 3 mps 743 mmHg 91%
    19:00 +4°C° 0 mm 3 mps 744 mmHg 90%
    20:00 +4°C° 0 mm 3 mps 744 mmHg 89%
    21:00 +4°C° 0 mm 3 mps 745 mmHg 88%
    22:00 +4°C° 0 mm 4 mps 746 mmHg 88%
    23:00 +4°C° 0 mm 4 mps 746 mmHg 88%

    Day after tomorrow, 17 December, Monday

    Time Temperature Precipitation Wind Pressure Humidity
    00:00 +4°C° 0 mm 4 mps 747 mmHg 88%
    01:00 +4°C° 0 mm 4 mps 747 mmHg 89%
    02:00 +3°C° 0 mm 4 mps 748 mmHg 89%
    03:00 +3°C° 0 mm 4 mps 748 mmHg 89%
    04:00 +3°C° 0 mm 4 mps 748 mmHg 89%
    05:00 +3°C° 0 mm 4 mps 749 mmHg 89%
    06:00 +3°C° 0 mm 4 mps 749 mmHg 89%
    07:00 +4°C° 0 mm 4 mps 749 mmHg 89%
    08:00 +4°C° 0 mm 4 mps 750 mmHg 90%
    09:00 +4°C° 0 mm 4 mps 750 mmHg 90%
    10:00 +6°C° 0 mm 5 mps 750 mmHg 88%
    11:00 +7°C° 0 mm 6 mps 750 mmHg 85%
    12:00 +8°C° 0 mm 7 mps 750 mmHg 83%
    13:00 +8°C° 0 mm 7 mps 750 mmHg 85%
    14:00 +8°C° 0 mm 7 mps 749 mmHg 86%
    15:00 +7°C° 0 mm 8 mps 749 mmHg 87%
    16:00 +7°C° 0 mm 8 mps 749 mmHg 88%
    17:00 +7°C° 0 mm 8 mps 749 mmHg 88%
    18:00 +9°C° 0 mm 8 mps 749 mmHg 89%
    19:00 +9°C° 0.1 mm 8 mps 749 mmHg 89%
    20:00 +8°C° 0.1 mm 9 mps 748 mmHg 88%
    21:00 +8°C° 0.1 mm 9 mps 748 mmHg 88%
    22:00 +8°C° 0.2 mm 9 mps 748 mmHg 88%
    23:00 +8°C° 0.2 mm 9 mps 748 mmHg 87%

    18 December, Tuesday

    Time Temperature Precipitation Wind Pressure Humidity
    00:00 +8°C° 0.2 mm 10 mps 748 mmHg 87%
    01:00 +8°C° 0.1 mm 10 mps 747 mmHg 86%
    02:00 +8°C° 0.1 mm 10 mps 746 mmHg 85%
    03:00 +8°C° 0.1 mm 11 mps 746 mmHg 85%
    04:00 +8°C° 0 mm 11 mps 745 mmHg 83%
    05:00 +8°C° 0 mm 11 mps 744 mmHg 82%
    06:00 +8°C° 0 mm 11 mps 743 mmHg 80%
    07:00 +7°C° 0.4 mm 12 mps 742 mmHg 80%
    08:00 +7°C° 0.4 mm 12 mps 742 mmHg 80%
    09:00 +7°C° 0.4 mm 13 mps 741 mmHg 81%
    10:00 +7°C° 1.4 mm 13 mps 740 mmHg 82%
    11:00 +7°C° 1.4 mm 13 mps 739 mmHg 83%
    12:00 +7°C° 1.4 mm 13 mps 738 mmHg 84%
    13:00 +7°C° 1.7 mm 13 mps 738 mmHg 85%
    14:00 +7°C° 1.7 mm 13 mps 737 mmHg 86%
    15:00 +7°C° 1.7 mm 12 mps 737 mmHg 87%
    16:00 +7°C° 2.1 mm 11 mps 736 mmHg 88%
    17:00 +8°C° 2.1 mm 10 mps 736 mmHg 90%
    18:00 +8°C° 2.1 mm 9 mps 736 mmHg 91%
    19:00 +7°C° 0.5 mm 8 mps 737 mmHg 88%
    20:00 +6°C° 0.5 mm 7 mps 738 mmHg 86%
    21:00 +5°C° 0.5 mm 7 mps 739 mmHg 83%
    22:00 +5°C° 0.1 mm 6 mps 740 mmHg 84%
    23:00 +5°C° 0.1 mm 6 mps 740 mmHg 85%

    19 December, Wednesday

    Time Temperature Precipitation Wind Pressure Humidity
    00:00 +4°C° 0.1 mm 6 mps 741 mmHg 87%
    01:00 +4°C° 0.1 mm 6 mps 741 mmHg 87%
    02:00 +5°C° 0.1 mm 5 mps 742 mmHg 87%
    03:00 +5°C° 0.1 mm 5 mps 742 mmHg 87%
    04:00 +5°C° 0.2 mm 5 mps 742 mmHg 88%
    05:00 +5°C° 0.2 mm 5 mps 743 mmHg 88%
    06:00 +5°C° 0.2 mm 4 mps 743 mmHg 89%
    07:00 +5°C° 0.1 mm 4 mps 743 mmHg 88%
    08:00 +4°C° 0.1 mm 4 mps 744 mmHg 87%
    09:00 +4°C° 0.1 mm 4 mps 744 mmHg 87%
    10:00 +5°C° 0.1 mm 4 mps 744 mmHg 83%
    11:00 +6°C° 0.1 mm 5 mps 745 mmHg 80%
    12:00 +7°C° 0.1 mm 5 mps 745 mmHg 76%
    13:00 +7°C° 0.1 mm 5 mps 745 mmHg 77%
    14:00 +6°C° 0.1 mm 5 mps 745 mmHg 78%
    15:00 +6°C° 0.1 mm 5 mps 745 mmHg 80%
    16:00 +6°C° 0.2 mm 5 mps 745 mmHg 82%
    17:00 +5°C° 0.2 mm 5 mps 745 mmHg 83%
    18:00 +5°C° 0.2 mm 5 mps 745 mmHg 85%
    19:00 +5°C° 0.1 mm 5 mps 745 mmHg 86%
    20:00 +3°C° 0.1 mm 5 mps 746 mmHg 87%
    21:00 +3°C° 0.1 mm 5 mps 746 mmHg 87%
    22:00 +3°C° 0.1 mm 5 mps 746 mmHg 87%
    23:00 +3°C° 0.1 mm 5 mps 746 mmHg 87%

    20 December, Thursday

    Time Temperature Precipitation Wind Pressure Humidity
    00:00 +3°C° 0.1 mm 5 mps 746 mmHg 87%
    01:00 +3°C° 0.2 mm 5 mps 746 mmHg 87%
    02:00 +3°C° 0.2 mm 6 mps 746 mmHg 87%
    03:00 +4°C° 0.2 mm 6 mps 747 mmHg 87%
    04:00 +4°C° 0.3 mm 6 mps 747 mmHg 87%
    05:00 +4°C° 0.3 mm 6 mps 747 mmHg 87%
    06:00 +5°C° 0.3 mm 5 mps 748 mmHg 87%
    07:00 +5°C° 0.1 mm 5 mps 748 mmHg 88%
    08:00 +5°C° 0.1 mm 5 mps 748 mmHg 88%
    09:00 +4°C° 0.1 mm 4 mps 749 mmHg 88%
    10:00 +5°C° 0 mm 4 mps 749 mmHg 85%
    11:00 +6°C° 0 mm 5 mps 749 mmHg 82%
    12:00 +7°C° 0 mm 5 mps 750 mmHg 79%
    13:00 +7°C° 0 mm 5 mps 749 mmHg 80%
    14:00 +7°C° 0 mm 5 mps 749 mmHg 82%
    15:00 +7°C° 0 mm 5 mps 749 mmHg 83%
    16:00 +6°C° 0 mm 5 mps 749 mmHg 84%
    17:00 +6°C° 0 mm 5 mps 749 mmHg 85%
    18:00 +5°C° 0 mm 6 mps 748 mmHg 87%
    19:00 +6°C° 1.1 mm 7 mps 747 mmHg 89%
    20:00 +6°C° 1.1 mm 8 mps 747 mmHg 91%
    21:00 +7°C° 1.1 mm 9 mps 746 mmHg 92%
    22:00 +8°C° 2.5 mm 10 mps 744 mmHg 92%
    23:00 +8°C° 2.5 mm 10 mps 743 mmHg 92%
    Show more